CloseHelpProblem

Burley Spudman

07/28/12


PlBibName RepresentingAge Division Interval TimeTime BackTotal Time
11285Steven ORROCKALPINE UT USA07 M 45-4900:41:36.263+0:0002:03:37.940
21233Alan SMILEYPROVO UT USA07 M 45-4900:42:54.129+1:17.802:09:47.4
31306Adam DEWAALSLC UT USA07 M 45-4900:45:40.858+2:46.702:13:08.719
41302Tracy MOBLEYRIGBY ID USA07 M 45-4900:45:45.212+2:51.002:12:10.705
51301Whitney PHILLIPSBOUNTIFUL UT USA07 M 45-4900:46:22.026+3:27.802:12:31.077
61319Daniel SORENSENSALT LAKE CITY UT USA07 M 45-4900:47:07.488+4:13.302:35:37.7
71250Curt EVANSSOUTH JORDAN UT USA07 M 45-4900:47:12.003+4:17.802:34:48.617
81320David LARSONCENTERVILLE UT USA07 M 45-4900:47:18.344+4:24.202:21:20.265
91263Bart LARSENIDAHO FALLS ID USA07 M 45-4900:48:00.283+5:06.102:17:16.319
101311Morgan GOFFSAN DIEGO CA USA07 M 45-4900:48:04.674+5:10.502:43:40.308
111271Andy BOYCEDRAPER UT USA07 M 45-4900:48:13.569+5:19.402:35:38.342
121280Tim CHESLEYPARK CITY UT USA07 M 45-4900:48:17.491+5:23.302:28:42.128
131241Kris PAINTERRIVERTON UT USA07 M 45-4900:49:16.260+6:22.102:36:54.206
141332Aaron HALLSALT LAKE CITY UT USA07 M 45-4900:50:03.048+7:08.902:57:22.149
151270Barry JOHNSONALPINE UT USA07 M 45-4900:50:12.408+7:18.202:43:54.439
161227Glenn WAKEFIELDHEBER CITY UT USA07 M 45-4900:50:55.784+8:01.602:23:59.425
171252Tony CHRISTENSENKAYSVILLE UT USA07 M 45-4900:51:00.569+8:06.402:51:25.284
181287Brad BARLOWFRUITLAND ID USA07 M 45-4900:51:25.385+8:31.202:21:06.821
191288William ASHTONSOUTH JORDAN UT USA07 M 45-4900:51:34.493+8:40.302:33:18.116
201238Shane DAMRONINKOM ID USA07 M 45-4900:52:31.390+9:37.202:32:42.539
211257Bruno GERBERRIVERTON UT USA07 M 45-4900:53:02.922+10:08.702:20:25.434
221268Daniel SNOWPROVO UT USA07 M 45-4900:53:03.827+10:09.602:42:14.613
231272Brad CHILTONPOCATELLO ID USA07 M 45-4900:53:04.293+10:10.102:37:29.047
241297Doug GARRETTMILLVILLE UT USA07 M 45-4900:53:19.663+10:25.502:33:07.560
251251Michael HOUSLEYSMITHFIELD UT USA07 M 45-4900:53:31.310+10:37.102:28:43.306
261244Shon RINDLISBACHERRIVERTON UT USA07 M 45-4900:53:58.666+11:04.502:39:30.302
271249Paul SLADEMURRAY UT USA07 M 45-4900:54:12.840+11:18.702:23:25.119
281323Sean KUNZLEROGDEN UT USA07 M 45-4900:54:35.618+11:41.402:42:17.959
291226Anthony BARNHARTTWIN FALLS ID USA07 M 45-4900:55:38.363+12:44.202:45:23.561
301247Kleigh HUMPHREYSALT LAKE CITY UT USA07 M 45-4900:56:17.309+13:23.102:34:12.078
311293Lonnie HUNTERSOUTH JORDAN UT USA07 M 45-4900:56:23.577+13:29.402:34:17.209
321255Daren GEHRINGNORTH LOGAN UT USA07 M 45-4900:56:30.289+13:36.102:38:42.577
331248Paul KORTHWEST JORDAN UT USA07 M 45-4900:56:30.555+13:36.402:41:53.588
341229Brian PIKETWIN FALLS ID USA07 M 45-4900:56:43.409+13:49.202:37:12.938
351261Matthew MITTONBOUNTIFUL UT USA07 M 45-4900:56:45.904+13:51.702:48:07.933
361231Jeff OTTORIVERTON UT USA07 M 45-4900:56:48.738+13:54.602:30:55.501
371235Greg SCHERERNORTH OGDEN UT USA07 M 45-4900:57:02.109+14:07.902:49:09.945
381239Gregg GREEREDEN UT USA07 M 45-4900:57:06.224+14:12.002:44:35.755
391237Ron VAN TIENDERENSALT LAKE CITY UT USA07 M 45-4900:57:09.391+14:15.202:42:22.468
401310Lonnie MCMURTREYTHORNTON CO USA07 M 45-4900:58:14.556+15:20.402:47:09.566
411303Matt BRIDGESBUHL ID USA07 M 45-4900:58:18.476+15:24.302:38:04.176
421329Perry CRAWFORDTREMONTON UT USA07 M 45-4900:58:28.195+15:34.002:42:17.061
431240Tim JONESBOUNTIFUL UT USA07 M 45-4900:59:32.136+16:38.002:57:04.342
441328Doug LENIOPOCATELLO ID USA07 M 45-4901:00:09.011+17:14.802:24:36.672
451260Myron VAWDREYDRAPER UT USA07 M 45-4901:00:29.951+17:35.802:45:58.095
461324Alan DAYLEYALPINE UT USA07 M 45-4901:01:49.836+18:55.703:02:08.762
471312Stuart ROBERTSONVANCOUVER WA USA07 M 45-4901:02:00.686+19:06.502:48:16.749
481259Brad BURGESSWEST JORDAN UT USA07 M 45-4901:02:45.465+19:51.302:50:40.938
491230Thayne PETERSONALPINE UT USA07 M 45-4901:03:10.792+20:16.602:38:56.957
501321Brian WOLSEYALPINE UT USA07 M 45-4901:03:12.164+20:18.003:13:01.067
511265Greg ANDERSONSOUTH JORDAN UT USA07 M 45-4901:03:38.101+20:43.902:37:03.827
521242Darin ANDERSONLEHI UT USA07 M 45-4901:03:48.216+20:54.002:47:16.020
531266Temp PATTERSONBURLEY ID USA07 M 45-4901:04:17.539+21:23.402:38:27.874
541282Robert CONLEEALPINE UT USA07 M 45-4901:04:38.146+21:44.002:50:37.474
551313Lynn LANGFORDALPINE UT USA07 M 45-4901:06:34.112+23:39.903:06:13.474
561286Craig RASBANDFARMINGTON UT USA07 M 45-4901:07:38.639+24:44.503:12:41.366
571289Kevin HALVERSONRUPERT ID USA07 M 45-4901:07:52.371+24:58.202:57:46.077
581291Scott DEBERARDNORTH LOGAN UT USA07 M 45-4901:08:47.241+25:53.102:49:35.346
591300Bart HANSONJACKSON ID USA07 M 45-4901:09:16.377+26:22.202:53:57.781
601290Matthew JOHNSONCENTERVILLE UT USA07 M 45-4901:12:40.319+29:46.103:22:28.068
611232Frank MENDEZMURRAY UT USA07 M 45-4901:12:58.399+30:04.202:57:04.135
621277David BLACKBURNEAGLE MTN UT USA07 M 45-4901:12:59.849+30:05.703:05:46.493
631276David MOXHAMDRAPER UT USA07 M 45-4901:13:08.455+30:14.303:04:07.604
641294Alan NIELSONLITTLE ELM TX USA07 M 45-4901:13:11.336+30:17.203:13:19.246
651298Peter KLAASSIDAHO FALLS ID USA07 M 45-4901:13:23.373+30:29.203:12:39.021
661292Jeff LAWRENCEIDAHO FALLS ID USA07 M 45-4901:13:44.421+30:50.203:13:44.463
671279Daren STEGELMEIERMORGAN UT USA07 M 45-4901:14:46.107+31:51.903:16:38.770
681281Brad CHRISTENSENALPINE UT USA07 M 45-4901:15:46.821+32:52.603:04:10.226
691278Glen ALLENBURLEY ID USA07 M 45-4901:15:49.912+32:55.703:16:43.950
701978Richard MATHESON07 M 45-4901:26:28.325+43:34.103:24:50.796
711254Jeffrey KINGKAYSVILLE UT USA07 M 45-4901:32:30.689+49:36.503:29:50.405